ROMMA est une association bénévole à but non lucratif. Votre soutien est indispensable : ADHERER à ROMMA ou FAIRE un DON

Pinsot - (38, Isère)

Vallée du Haut Bréda (750 m)   Longitude: 06° 06' E   Latitude: 45° 21' N Station partenaire n°101
 

Détail journalier du     <<     >>

Température Precipitation Humidité Pression Vent Dir Rafale Dir. rafale Ensol.
Heure (°C) (mm) (%) (hPa) (km/h) (km/h) (min)
01:00 1.7088103005SSO0
02:00 1.6087103006SSO0
03:00 1.6085103006SSO0
04:00 1.6085103006SSO0
05:00 1.608210291SSO15S0
06:00 1.608210292SSO13SSO0
07:00 0.4087102902S0
08:00 -0.70911029000
09:00 -1.2092103005SSO0
10:00 -0.9090103002SSO0
11:00 -0.8090103005S0
12:00 1.3089103002S0
13:00 2.208310302NE18NNE0
14:00 2.507710293NE19N0
15:00 2.607510304NE19NNE0
16:00 2.307210304NNE16NE0
17:00 1.706710315NE18N0
18:00 0.707010312NE13E0
19:00 -1.0080103103ESE0
20:00 -1.5082103103S0
21:00 -2.1084103105SSO0
22:00 -2.40861031000
23:00 -2.90881031000
minuit -3.2088103103SSO0

Graphique du 02-01-2019

 

Serveur OMMA